When you browse on this site, cookies collect data to enhance your experience and personalize the content and advertising you see.
Visit our Privacy Policy to learn more. By continuing to use the site, you agree to this use of cookies and data.
  • în România
  • Lista ţărilor
  • Pe 7 zile
  • Temperatura apei
  • Hartă satelitară
  • Meteo pe hartă
  • Widget-uri
  • user-avatar
    Intrare

    Meteo pe oră la Muniaczkowice

    Astăzi, 25 Mai, Sâmbătă

    Timp Temperatura Precipitaţii Vânt Presiune Umiditate
    00:00 +12°C° 0 mm 2 m/s 736 mmHg 92%
    01:00 +10°C° 0 mm 2 m/s 736 mmHg 92%
    02:00 +10°C° 0 mm 2 m/s 736 mmHg 92%
    03:00 +9°C° 0 mm 2 m/s 736 mmHg 92%
    04:00 +9°C° 0 mm 2 m/s 736 mmHg 92%
    05:00 +12°C° 0 mm 2 m/s 736 mmHg 88%
    06:00 +13°C° 0 mm 2 m/s 736 mmHg 85%
    07:00 +15°C° 0 mm 2 m/s 737 mmHg 81%
    08:00 +16°C° 0 mm 3 m/s 737 mmHg 73%
    09:00 +18°C° 0 mm 3 m/s 737 mmHg 66%
    10:00 +19°C° 0 mm 3 m/s 737 mmHg 58%
    11:00 +20°C° 0 mm 3 m/s 737 mmHg 57%
    12:00 +21°C° 0 mm 3 m/s 737 mmHg 56%
    13:00 +21°C° 0 mm 3 m/s 736 mmHg 54%
    14:00 +21°C° 0 mm 3 m/s 736 mmHg 56%
    15:00 +21°C° 0 mm 3 m/s 736 mmHg 58%
    16:00 +21°C° 0 mm 3 m/s 736 mmHg 60%
    17:00 +20°C° 0.2 mm 2 m/s 736 mmHg 66%
    18:00 +18°C° 0.2 mm 2 m/s 736 mmHg 73%
    19:00 +17°C° 0.2 mm 2 m/s 736 mmHg 79%
    20:00 +16°C° 0 mm 1 m/s 736 mmHg 82%
    21:00 +15°C° 0 mm 1 m/s 737 mmHg 84%
    22:00 +14°C° 0 mm 1 m/s 737 mmHg 87%
    23:00 +13°C° 0 mm 1 m/s 737 mmHg 88%

    Mâine, 26 Mai, Duminică

    Timp Temperatura Precipitaţii Vânt Presiune Umiditate
    00:00 +13°C° 0 mm 1 m/s 737 mmHg 89%
    01:00 +13°C° 0 mm 1 m/s 737 mmHg 89%
    02:00 +13°C° 0 mm 1 m/s 737 mmHg 90%
    03:00 +12°C° 0 mm 1 m/s 737 mmHg 90%
    04:00 +12°C° 0 mm 1 m/s 737 mmHg 91%
    05:00 +14°C° 0 mm 2 m/s 737 mmHg 88%
    06:00 +15°C° 0 mm 2 m/s 737 mmHg 85%
    07:00 +17°C° 0 mm 2 m/s 738 mmHg 82%
    08:00 +18°C° 0.2 mm 2 m/s 738 mmHg 79%
    09:00 +19°C° 0.2 mm 3 m/s 738 mmHg 75%
    10:00 +20°C° 0.2 mm 3 m/s 738 mmHg 71%
    11:00 +21°C° 0.1 mm 3 m/s 737 mmHg 68%
    12:00 +21°C° 0.1 mm 3 m/s 737 mmHg 65%
    13:00 +22°C° 0.1 mm 3 m/s 737 mmHg 62%
    14:00 +22°C° 0.2 mm 3 m/s 737 mmHg 62%
    15:00 +22°C° 0.2 mm 3 m/s 736 mmHg 63%
    16:00 +22°C° 0.2 mm 3 m/s 736 mmHg 64%
    17:00 +21°C° 0.4 mm 2 m/s 736 mmHg 70%
    18:00 +19°C° 0.4 mm 2 m/s 736 mmHg 75%
    19:00 +18°C° 0.4 mm 2 m/s 736 mmHg 81%
    20:00 +17°C° 0 mm 2 m/s 736 mmHg 84%
    21:00 +16°C° 0 mm 2 m/s 737 mmHg 86%
    22:00 +15°C° 0 mm 2 m/s 737 mmHg 89%
    23:00 +15°C° 0 mm 2 m/s 737 mmHg 90%

    Poimâine, 27 Mai, Luni

    Timp Temperatura Precipitaţii Vânt Presiune Umiditate
    00:00 +15°C° 0 mm 2 m/s 737 mmHg 91%
    01:00 +14°C° 0 mm 2 m/s 736 mmHg 92%
    02:00 +14°C° 0 mm 2 m/s 736 mmHg 92%
    03:00 +14°C° 0 mm 2 m/s 736 mmHg 92%
    04:00 +13°C° 0 mm 2 m/s 736 mmHg 92%
    05:00 +15°C° 0 mm 2 m/s 736 mmHg 88%
    06:00 +17°C° 0 mm 2 m/s 736 mmHg 85%
    07:00 +18°C° 0 mm 2 m/s 736 mmHg 81%
    08:00 +20°C° 0.2 mm 3 m/s 736 mmHg 76%
    09:00 +21°C° 0.2 mm 3 m/s 736 mmHg 71%
    10:00 +23°C° 0.2 mm 4 m/s 736 mmHg 66%
    11:00 +23°C° 0.3 mm 4 m/s 736 mmHg 63%
    12:00 +25°C° 0.3 mm 3 m/s 735 mmHg 61%
    13:00 +26°C° 0.3 mm 3 m/s 735 mmHg 58%
    14:00 +25°C° 0.3 mm 3 m/s 735 mmHg 60%
    15:00 +25°C° 0.3 mm 2 m/s 735 mmHg 62%
    16:00 +25°C° 0.3 mm 2 m/s 734 mmHg 64%
    17:00 +24°C° 0.4 mm 2 m/s 734 mmHg 69%
    18:00 +21°C° 0.4 mm 2 m/s 734 mmHg 74%
    19:00 +20°C° 0.4 mm 2 m/s 734 mmHg 79%
    20:00 +20°C° 0 mm 1 m/s 734 mmHg 81%
    21:00 +19°C° 0 mm 1 m/s 734 mmHg 82%
    22:00 +18°C° 0 mm 1 m/s 734 mmHg 84%
    23:00 +18°C° 0.6 mm 1 m/s 734 mmHg 87%

    28 Mai, Marţi

    Timp Temperatura Precipitaţii Vânt Presiune Umiditate
    00:00 +18°C° 0.6 mm 1 m/s 734 mmHg 89%
    01:00 +16°C° 0.6 mm 1 m/s 733 mmHg 91%
    02:00 +16°C° 1 mm 1 m/s 733 mmHg 93%
    03:00 +16°C° 1 mm 1 m/s 733 mmHg 94%
    04:00 +16°C° 1 mm 1 m/s 733 mmHg 95%
    05:00 +18°C° 0.1 mm 1 m/s 732 mmHg 94%
    06:00 +19°C° 0.1 mm 1 m/s 732 mmHg 92%
    07:00 +19°C° 0.1 mm 1 m/s 732 mmHg 90%
    08:00 +20°C° 0 mm 2 m/s 732 mmHg 83%
    09:00 +23°C° 0 mm 2 m/s 732 mmHg 76%
    10:00 +24°C° 0 mm 2 m/s 732 mmHg 69%
    11:00 +24°C° 0.8 mm 2 m/s 732 mmHg 71%
    12:00 +24°C° 0.8 mm 2 m/s 731 mmHg 72%
    13:00 +24°C° 0.8 mm 2 m/s 731 mmHg 73%
    14:00 +23°C° 3.1 mm 2 m/s 731 mmHg 78%
    15:00 +21°C° 3.1 mm 2 m/s 730 mmHg 82%
    16:00 +20°C° 3.1 mm 2 m/s 730 mmHg 86%
    17:00 +19°C° 0.2 mm 2 m/s 730 mmHg 88%
    18:00 +19°C° 0.2 mm 2 m/s 730 mmHg 90%
    19:00 +18°C° 0.2 mm 2 m/s 730 mmHg 91%
    20:00 +18°C° 1.3 mm 2 m/s 731 mmHg 90%
    21:00 +18°C° 1.3 mm 2 m/s 731 mmHg 89%
    22:00 +18°C° 1.3 mm 1 m/s 731 mmHg 87%
    23:00 +17°C° 0 mm 2 m/s 731 mmHg 90%

    29 Mai, Miercuri

    Timp Temperatura Precipitaţii Vânt Presiune Umiditate
    00:00 +16°C° 0 mm 3 m/s 731 mmHg 92%
    01:00 +14°C° 0 mm 3 m/s 732 mmHg 95%
    02:00 +14°C° 0.4 mm 3 m/s 732 mmHg 95%
    03:00 +14°C° 0.4 mm 3 m/s 733 mmHg 96%
    04:00 +14°C° 0.4 mm 3 m/s 733 mmHg 96%
    05:00 +13°C° 1 mm 4 m/s 734 mmHg 95%
    06:00 +12°C° 1 mm 5 m/s 734 mmHg 94%
    07:00 +11°C° 1 mm 6 m/s 735 mmHg 93%
    08:00 +10°C° 0.9 mm 6 m/s 736 mmHg 93%
    09:00 +10°C° 0.9 mm 6 m/s 737 mmHg 93%
    10:00 +10°C° 0.9 mm 5 m/s 737 mmHg 92%
    11:00 +10°C° 0.1 mm 5 m/s 738 mmHg 91%
    12:00 +11°C° 0.1 mm 4 m/s 739 mmHg 89%
    13:00 +12°C° 0.1 mm 3 m/s 739 mmHg 87%
    14:00 +12°C° 0 mm 3 m/s 740 mmHg 86%
    15:00 +13°C° 0 mm 3 m/s 740 mmHg 85%
    16:00 +14°C° 0 mm 2 m/s 740 mmHg 83%
    17:00 +14°C° 0 mm 2 m/s 741 mmHg 84%
    18:00 +13°C° 0 mm 3 m/s 741 mmHg 84%
    19:00 +12°C° 0 mm 3 m/s 742 mmHg 84%
    20:00 +11°C° 0 mm 3 m/s 742 mmHg 85%
    21:00 +10°C° 0 mm 3 m/s 742 mmHg 87%
    22:00 +9°C° 0 mm 3 m/s 743 mmHg 88%
    23:00 +9°C° 0 mm 3 m/s 743 mmHg 89%

    30 Mai, Joi

    Timp Temperatura Precipitaţii Vânt Presiune Umiditate
    00:00 +8°C° 0 mm 2 m/s 743 mmHg 91%
    01:00 +8°C° 0 mm 2 m/s 744 mmHg 92%
    02:00 +7°C° 0 mm 2 m/s 744 mmHg 93%
    03:00 +7°C° 0 mm 2 m/s 744 mmHg 93%
    04:00 +7°C° 0 mm 2 m/s 744 mmHg 93%
    05:00 +8°C° 0 mm 2 m/s 744 mmHg 87%
    06:00 +9°C° 0 mm 2 m/s 745 mmHg 81%
    07:00 +10°C° 0 mm 2 m/s 745 mmHg 75%
    08:00 +10°C° 0.1 mm 2 m/s 745 mmHg 70%
    09:00 +12°C° 0.1 mm 2 m/s 745 mmHg 65%
    10:00 +13°C° 0.1 mm 1 m/s 744 mmHg 60%
    11:00 +12°C° 0.3 mm 2 m/s 744 mmHg 65%
    12:00 +12°C° 0.3 mm 2 m/s 744 mmHg 70%
    13:00 +12°C° 0.3 mm 2 m/s 743 mmHg 75%
    14:00 +12°C° 0 mm 2 m/s 743 mmHg 74%
    15:00 +12°C° 0 mm 1 m/s 743 mmHg 74%
    16:00 +12°C° 0 mm 1 m/s 743 mmHg 74%
    17:00 +11°C° 0 mm 1 m/s 743 mmHg 75%
    18:00 +11°C° 0 mm 1 m/s 742 mmHg 76%
    19:00 +11°C° 0 mm 1 m/s 742 mmHg 77%
    20:00 +10°C° 0 mm 1 m/s 742 mmHg 75%
    21:00 +10°C° 0 mm 1 m/s 743 mmHg 72%
    22:00 +9°C° 0 mm 1 m/s 743 mmHg 69%
    23:00 +9°C° 0 mm 1 m/s 742 mmHg 69%
    Arată mai mult